Weather History for Glenwood, MN

Change the Weather History Date:

Sunday, March 9, 2014

  Actual Average Record
Temperature  
Mean Temperature 30 °F -  
Max Temperature 42 °F 33 °F 48 °F (1990)
Min Temperature 17 °F 14 °F -23 °F (1951)
Degree Days  
Heating Degree Days 36    
Moisture  
Dew Point 28 °F    
Average Humidity 80    
Maximum Humidity 93    
Minimum Humidity 65    
Precipitation  
Precipitation 0.00 in - - ()
Sea Level Pressure  
Sea Level Pressure 29.74 in    
Wind  
Wind Speed 12 mph (SW)    
Max Wind Speed 16 mph    
Max Gust Speed -    
Visibility 10 miles    
Events      
Averages and records for this station are not official NWS values.
T = Trace of Precipitation, MM = Missing Value Source: NWS Daily Summary

Daily Weather History Graph

Daily Weather History Graph

Search for Another Location

Airport:

Trip Planner

Search our weather history database for the weather conditions in past years. The results will help you decide how hot, cold, wet, or windy it might be!

Date:

Astronomy

Mar. 09, 2014 Rise Set
Actual Time 7:45 AM CDT 7:19 PM CDT
Civil Twilight 7:15 AM CDT 7:48 PM CDT
Nautical Twilight 6:41 AM CDT 8:23 PM CDT
Astronomical Twilight 6:06 AM CDT 8:58 PM CDT
Moon 12:59 PM CDT (3/9) 3:24 AM CDT (3/9)
Length of Visible Light 12h 33m
Length of Day
11h 34m
First Quarter, 61% of the Moon is Illuminated
Mar 9
First Quarter
Mar 16
Full
Mar 23
Last Quarter
Mar 30
New
Apr 7
First Quarter

Hourly Weather History & Observations

Time (CDT) Temp. Windchill Dew Point Humidity Pressure Visibility Wind Dir Wind Speed Gust Speed Precip Events Conditions
12:13 AM 17.6 °F 3.2 °F 15.8 °F 93% 30.03 in 10.0 mi South 15.0 mph - N/A   Clear
12:33 AM 19.4 °F 5.5 °F 15.8 °F 86% 30.03 in 10.0 mi South 15.0 mph - N/A   Clear
12:53 AM 19.4 °F 6.0 °F 15.8 °F 86% 30.02 in 10.0 mi SSW 13.8 mph - N/A   Clear
1:13 AM 19.4 °F 6.6 °F 15.8 °F 86% 30.00 in 10.0 mi South 12.7 mph - N/A   Clear
1:33 AM 19.4 °F 6.6 °F 15.8 °F 86% 29.99 in 10.0 mi South 12.7 mph - N/A   Clear
1:54 AM 19.4 °F 6.6 °F 15.8 °F 86% 29.98 in 10.0 mi South 12.7 mph - N/A   Clear
3:13 AM 19.4 °F 7.2 °F 15.8 °F 86% 29.97 in 10.0 mi South 11.5 mph - N/A   Clear
3:33 AM 19.4 °F 7.9 °F 15.8 °F 86% 29.96 in 10.0 mi South 10.4 mph - N/A   Clear
3:53 AM 21.2 °F 8.3 °F 17.6 °F 86% 29.94 in 10.0 mi South 13.8 mph - N/A   Clear
4:13 AM 21.2 °F 8.3 °F 17.6 °F 86% 29.92 in 10.0 mi South 13.8 mph - N/A   Clear
4:34 AM 21.2 °F 8.3 °F 15.8 °F 80% 29.91 in 10.0 mi South 13.8 mph - N/A   Clear
4:53 AM 21.2 °F 9.5 °F 17.6 °F 86% 29.90 in 10.0 mi South 11.5 mph - N/A   Clear
5:13 AM 21.2 °F 8.9 °F 17.6 °F 86% 29.89 in 10.0 mi South 12.7 mph - N/A   Clear
5:33 AM 23.0 °F 10.6 °F 17.6 °F 80% 29.88 in 10.0 mi South 13.8 mph - N/A   Clear
5:53 AM 24.8 °F 14.0 °F 19.4 °F 80% 29.86 in 10.0 mi South 11.5 mph - N/A   Clear
6:13 AM 24.8 °F 12.9 °F 19.4 °F 80% 29.85 in 10.0 mi South 13.8 mph - N/A   Clear
6:33 AM 24.8 °F 14.0 °F 19.4 °F 80% 29.84 in 10.0 mi South 11.5 mph - N/A   Clear
6:53 AM 26.6 °F 16.8 °F 21.2 °F 80% 29.82 in 10.0 mi South 10.4 mph - N/A   Clear
7:13 AM 26.6 °F 15.2 °F 21.2 °F 80% 29.80 in 10.0 mi South 13.8 mph - N/A   Clear
7:33 AM 28.4 °F 18.0 °F 23.0 °F 80% 29.79 in 10.0 mi SSW 12.7 mph - N/A   Clear
7:53 AM 28.4 °F 16.6 °F 23.0 °F 80% 29.78 in 10.0 mi SSW 16.1 mph - N/A   Clear
8:13 AM 28.4 °F 17.0 °F 23.0 °F 80% 29.77 in 10.0 mi SSW 15.0 mph - N/A   Clear
8:34 AM 28.4 °F 16.6 °F 24.8 °F 86% 29.76 in 10.0 mi SSW 16.1 mph - N/A   Clear
8:53 AM 30.2 °F 19.8 °F 24.8 °F 80% 29.75 in 10.0 mi SSW 13.8 mph - N/A   Clear
9:13 AM 30.2 °F 18.9 °F 24.8 °F 80% 29.74 in 10.0 mi SSW 16.1 mph - N/A   Clear
9:33 AM 30.2 °F 19.3 °F 26.6 °F 86% 29.73 in 10.0 mi SSW 15.0 mph - N/A   Clear
9:53 AM 33.8 °F 24.3 °F 26.6 °F 75% 29.72 in 10.0 mi SSW 13.8 mph - N/A   Clear
10:14 AM 33.8 °F 24.3 °F 28.4 °F 81% 29.71 in 10.0 mi SSW 13.8 mph - N/A   Clear
10:33 AM 33.8 °F 23.5 °F 28.4 °F 81% 29.71 in 10.0 mi SW 16.1 mph - N/A   Clear
10:53 AM 35.6 °F 26.2 °F 28.4 °F 75% 29.71 in 10.0 mi SSW 15.0 mph - N/A   Clear
11:13 AM 35.6 °F 26.6 °F 28.4 °F 75% 29.71 in 10.0 mi SSW 13.8 mph - N/A   Clear
11:33 AM 37.4 °F 29.3 °F 30.2 °F 75% 29.69 in 10.0 mi SSW 12.7 mph - N/A   Clear
11:53 AM 39.2 °F 30.8 °F 30.2 °F 70% 29.69 in 10.0 mi SW 15.0 mph - N/A   Clear
12:13 PM 39.2 °F 30.5 °F 30.2 °F 70% 29.69 in 10.0 mi SW 16.1 mph - N/A   Clear
12:33 PM 39.2 °F 30.8 °F 30.2 °F 70% 29.68 in 10.0 mi SW 15.0 mph - N/A   Clear
12:53 PM 41.0 °F 33.9 °F 30.2 °F 65% 29.69 in 10.0 mi SW 12.7 mph - N/A   Clear
1:13 PM 41.0 °F 34.7 °F 32.0 °F 70% 29.68 in 10.0 mi SW 10.4 mph - N/A   Clear
1:33 PM 39.2 °F 33.0 °F 32.0 °F 75% 29.67 in 10.0 mi SW 9.2 mph - N/A   Clear
1:53 PM 39.2 °F 33.0 °F 32.0 °F 75% 29.67 in 10.0 mi SW 9.2 mph - N/A   Clear
2:13 PM 41.0 °F 35.8 °F 32.0 °F 70% 29.66 in 10.0 mi SW 8.1 mph - N/A   Clear
2:34 PM 42.8 °F 36.2 °F 33.8 °F 70% 29.66 in 10.0 mi SW 12.7 mph - N/A   Clear
2:53 PM 42.8 °F 37.5 °F 33.8 °F 70% 29.66 in 10.0 mi WSW 9.2 mph - N/A   Clear
3:13 PM 42.8 °F 36.6 °F 33.8 °F 70% 29.65 in 10.0 mi WSW 11.5 mph - N/A   Clear
3:33 PM 42.8 °F 37.0 °F 33.8 °F 70% 29.65 in 10.0 mi WSW 10.4 mph - N/A   Clear
3:53 PM 42.8 °F 37.5 °F 35.6 °F 76% 29.64 in 10.0 mi WSW 9.2 mph - N/A   Clear
4:14 PM 42.8 °F 37.0 °F 33.8 °F 70% 29.63 in 10.0 mi WSW 10.4 mph - N/A   Clear
4:33 PM 42.8 °F 37.5 °F 33.8 °F 70% 29.64 in 10.0 mi West 9.2 mph - N/A   Clear
4:53 PM 42.8 °F 37.0 °F 35.6 °F 76% 29.66 in 10.0 mi West 10.4 mph - N/A   Clear
5:13 PM 42.8 °F 37.5 °F 33.8 °F 70% 29.66 in 10.0 mi West 9.2 mph - N/A   Clear
5:33 PM 42.8 °F 37.0 °F 33.8 °F 70% 29.66 in 10.0 mi West 10.4 mph - N/A   Clear
5:53 PM 41.0 °F 35.2 °F 33.8 °F 76% 29.66 in 10.0 mi West 9.2 mph - N/A   Clear
6:13 PM 42.8 °F 37.5 °F 33.8 °F 70% 29.66 in 10.0 mi WSW 9.2 mph - N/A   Clear
6:33 PM 42.8 °F 37.5 °F 33.8 °F 70% 29.65 in 10.0 mi WSW 9.2 mph - N/A   Clear
6:53 PM 41.0 °F 36.4 °F 33.8 °F 76% 29.66 in 10.0 mi West 6.9 mph - N/A   Clear
7:13 PM 41.0 °F 35.2 °F 35.6 °F 81% 29.66 in 10.0 mi WSW 9.2 mph - N/A   Scattered Clouds
7:33 PM 41.0 °F 34.3 °F 35.6 °F 81% 29.66 in 10.0 mi WSW 11.5 mph - N/A   Scattered Clouds
7:53 PM 41.0 °F 34.3 °F 35.6 °F 81% 29.67 in 10.0 mi WSW 11.5 mph - N/A   Clear
8:14 PM 41.0 °F 34.7 °F 35.6 °F 81% 29.66 in 10.0 mi WSW 10.4 mph - N/A   Clear
8:33 PM 39.2 °F 32.5 °F 33.8 °F 81% 29.66 in 10.0 mi West 10.4 mph - N/A   Clear
8:53 PM 39.2 °F 33.0 °F 35.6 °F 87% 29.66 in 10.0 mi West 9.2 mph - N/A   Clear
9:13 PM 37.4 °F 30.8 °F 33.8 °F 87% 29.66 in 10.0 mi WSW 9.2 mph - N/A   Clear
9:33 PM 39.2 °F 35.0 °F 33.8 °F 81% 29.65 in 10.0 mi WSW 5.8 mph - N/A   Clear
9:54 PM 37.4 °F 33.8 °F 33.8 °F 87% 29.65 in 10.0 mi WSW 4.6 mph - N/A   Clear
10:13 PM 37.4 °F 33.8 °F 33.8 °F 87% 29.65 in 10.0 mi SW 4.6 mph - N/A   Clear
10:33 PM 37.4 °F 32.1 °F 33.8 °F 87% 29.65 in 10.0 mi WSW 6.9 mph - N/A   Clear
10:53 PM 37.4 °F 31.4 °F 33.8 °F 87% 29.64 in 10.0 mi WSW 8.1 mph - N/A   Clear
11:13 PM 37.4 °F 30.8 °F 33.8 °F 87% 29.64 in 10.0 mi SW 9.2 mph - N/A   Clear
11:34 PM 37.4 °F 30.8 °F 33.8 °F 87% 29.63 in 10.0 mi SW 9.2 mph - N/A   Clear
11:53 PM 37.4 °F 29.8 °F 33.8 °F 87% 29.64 in 10.0 mi WSW 11.5 mph - N/A   Clear
12:13 AM 37.4 °F 30.8 °F 33.8 °F 87% 29.63 in 10.0 mi WSW 9.2 mph - N/A   Clear
12:33 AM 37.4 °F 30.3 °F 33.8 °F 87% 29.63 in 10.0 mi WSW 10.4 mph - N/A   Clear
12:53 AM 37.4 °F 29.3 °F 33.8 °F 87% 29.64 in 10.0 mi WSW 12.7 mph - N/A   Clear